Flag for Malaysia Weather past 2 weeks in Johor Bahru, Malaysia

Now
81 °F

Passing clouds.


Feels Like: 85 °F
Forecast: 75 / 87 °F
Wind: 9 mph from Northeast

Location: Singapore / Paya Lebar

Current Time: Jan 28, 2015 at 10:47:13 PM

Latest Report: Jan 28, 2015 at 10:00 PM


Visibility: N/A

Pressure: 29.86 "Hg

Humidity: 79%

Dew point: 73 °F

Location of Johor BahruLocation

Historic Weather in Johor Bahru — Graph

°F

Johor Bahru temperature yesterday

Maximum temperature yesterday: 90 °F (at 4:00 PM)
Minimum temperature yesterday: 77 °F (at 5:00 AM)
Average temperature yesterday: 83 °F

Past Weeks' High & Low Weather Summary

 TemperatureHumidityPressure
High91 °F (Jan 28, 3:00 PM)89% (Jan 14, 7:00 AM)30.01 "Hg (Jan 14, 7:00 AM)
Low75 °F (Jan 20, 6:00 AM)46% (Jan 17, 3:00 PM)29.74 "Hg (Jan 28, 5:00 PM)
Average82 °F71%29.89 "Hg
* Reported Jan 13 9:00 PM — Jan 28 9:00 PM, Johor Bahru, Weather by CustomWeather, © 2014

Note: Actual official high and low records may vary slightly from our data, if they occured in-between our weather recording intervals... More about our weather records

Advertising

Johor Bahru weather history for previous 24 hours

 ConditionsComfort  
Time TempWeatherWind HumidityBarometerVisibility
9:00 PM
Jan 28
81 °FPassing clouds.10 mph79%29.83 "HgN/A
8:00 PM82 °FPartly cloudy.8 mph70%29.80 "HgN/A
7:00 PM86 °FSprinkles. Scattered clouds.13 mph66%29.77 "Hg5 mi
6:00 PM88 °FScattered showers. Broken clouds.6 mph62%29.77 "HgN/A
5:00 PM88 °FBroken clouds.9 mph59%29.74 "HgN/A
4:00 PM90 °FPartly sunny.9 mph55%29.77 "HgN/A
3:00 PM91 °FBroken clouds.10 mph52%29.77 "HgN/A
2:00 PM88 °FBroken clouds.12 mph59%29.80 "HgN/A
1:00 PM88 °FPartly sunny.10 mph59%29.83 "HgN/A
12:00 PM86 °FBroken clouds.12 mph62%29.86 "HgN/A
11:00 AM84 °FPartly sunny.13 mph66%29.89 "HgN/A
10:00 AM82 °FPartly sunny.12 mph70%29.89 "HgN/A
9:00 AM79 °FPartly sunny.12 mph79%29.86 "HgN/A
8:00 AM77 °FPartly sunny.9 mph83%29.83 "HgN/A
7:00 AM75 °FPassing clouds.6 mph89%29.83 "Hg6 mi
6:00 AM77 °FPassing clouds.6 mph83%29.80 "HgN/A
5:00 AM77 °FPassing clouds.7 mph83%29.80 "HgN/A
11:00 PM
Jan 27
79 °FPassing clouds.10 mph79%29.86 "HgN/A
10:00 PM79 °FPassing clouds.13 mph79%29.86 "HgN/A
Weather by CustomWeather, © 2014

See weather overviewHow to use our weather pages